Location: Devargunta
(16.7631°N, 80.9077°E)
Time: 16:49:21
(UTC+00:00)

TIMED - Pass Details

Date: 19 January 2021
Orbit: 602 x 604 km, 74.1° (Epoch: 26 February)

Event Time Altitude Azimuth Distance (km) Brightness Sun altitude
Rises 13:03:37 0° 347° (NNW) 2,849 7.9 -9.4°
Reaches altitude 10° 13:05:51 10° 348° (NNW) 1,945 7.1 -9.9°
Maximum altitude 13:10:12 85° 78° (ENE) 608 4.4 -10.9°
Drops below altitude 10° 13:14:33 10° 166° (SSE) 1,941 7.2 -11.9°
Sets 13:16:46 0° 166° (SSE) 2,842 8.0 -12.4°
